When you browse on this site, cookies collect data to enhance your experience and personalize the content and advertising you see.
Visit our Privacy Policy to learn more. By continuing to use the site, you agree to this use of cookies and data.
  • en Suisse
  • Liste des pays
  • À 7 jours
  • Température de l'eau
  • Carte satellitaire
  • Carte météo
  • Widgets météo
  • user-avatar
    Se connecter

    Météo par heure à Atamanovka

    Ce jour, 20 Novembre, Mardi

    Heure Température Précipitation Vent Pression Humidité
    00:00 -1°C° 0.2 mm 1 m/s 751 mmHg 93%
    01:00 -1°C° 0.2 mm 1 m/s 751 mmHg 93%
    02:00 -1°C° 0.2 mm 1 m/s 751 mmHg 93%
    03:00 -2°C° 0.2 mm 1 m/s 751 mmHg 93%
    04:00 -2°C° 0 mm 1 m/s 750 mmHg 94%
    05:00 -2°C° 0.1 mm 1 m/s 750 mmHg 94%
    06:00 -2°C° 0.1 mm 1 m/s 750 mmHg 95%
    07:00 -2°C° 0.1 mm 1 m/s 750 mmHg 95%
    08:00 -2°C° 0.1 mm 1 m/s 750 mmHg 94%
    09:00 -1°C° 0.1 mm 1 m/s 750 mmHg 93%
    10:00 -1°C° 0 mm 1 m/s 750 mmHg 92%
    11:00 -3°C° 0 mm 2 m/s 750 mmHg 91%
    12:00 -2°C° 0 mm 2 m/s 749 mmHg 90%
    13:00 -2°C° 0 mm 2 m/s 749 mmHg 89%
    14:00 -2°C° 0.1 mm 2 m/s 749 mmHg 91%
    15:00 -2°C° 0.1 mm 2 m/s 749 mmHg 93%
    16:00 -2°C° 0.1 mm 2 m/s 748 mmHg 94%
    17:00 -3°C° 0 mm 2 m/s 748 mmHg 95%
    18:00 -3°C° 0 mm 2 m/s 748 mmHg 95%
    19:00 -3°C° 0 mm 2 m/s 748 mmHg 96%
    20:00 -3°C° 0 mm 2 m/s 747 mmHg 96%
    21:00 -3°C° 0 mm 2 m/s 747 mmHg 95%
    22:00 -3°C° 0 mm 2 m/s 746 mmHg 95%
    23:00 -4°C° 0.1 mm 3 m/s 746 mmHg 94%

    Demain, 21 Novembre, Mercredi

    Heure Température Précipitation Vent Pression Humidité
    00:00 -4°C° 0.1 mm 3 m/s 745 mmHg 94%
    01:00 -4°C° 0.1 mm 3 m/s 745 mmHg 93%
    02:00 -4°C° 0 mm 3 m/s 744 mmHg 92%
    03:00 -5°C° 0 mm 4 m/s 744 mmHg 91%
    04:00 -5°C° 0 mm 4 m/s 743 mmHg 90%
    05:00 -5°C° 0.1 mm 4 m/s 742 mmHg 89%
    06:00 -6°C° 0.1 mm 5 m/s 742 mmHg 87%
    07:00 -6°C° 0.1 mm 5 m/s 741 mmHg 86%
    08:00 -6°C° 0.1 mm 5 m/s 740 mmHg 86%
    09:00 -6°C° 0.1 mm 5 m/s 739 mmHg 86%
    10:00 -6°C° 0.1 mm 6 m/s 739 mmHg 85%
    11:00 -6°C° 0.5 mm 6 m/s 738 mmHg 87%
    12:00 -6°C° 0.5 mm 6 m/s 737 mmHg 88%
    13:00 -6°C° 0.5 mm 6 m/s 736 mmHg 89%
    14:00 -6°C° 0.4 mm 5 m/s 736 mmHg 89%
    15:00 -6°C° 0.4 mm 5 m/s 735 mmHg 90%
    16:00 -6°C° 0.4 mm 5 m/s 735 mmHg 90%
    17:00 -6°C° 0.3 mm 5 m/s 734 mmHg 90%
    18:00 -6°C° 0.3 mm 5 m/s 734 mmHg 91%
    19:00 -6°C° 0.3 mm 5 m/s 734 mmHg 91%
    20:00 -6°C° 0.2 mm 5 m/s 734 mmHg 89%
    21:00 -7°C° 0.2 mm 5 m/s 733 mmHg 86%
    22:00 -8°C° 0.2 mm 5 m/s 733 mmHg 84%
    23:00 -8°C° 0.1 mm 5 m/s 733 mmHg 85%

    Après-demain, 22 Novembre, Jeudi

    Heure Température Précipitation Vent Pression Humidité
    00:00 -10°C° 0.1 mm 5 m/s 734 mmHg 86%
    01:00 -10°C° 0.1 mm 5 m/s 734 mmHg 87%
    02:00 -10°C° 0.2 mm 5 m/s 734 mmHg 87%
    03:00 -10°C° 0.2 mm 5 m/s 734 mmHg 86%
    04:00 -10°C° 0.2 mm 5 m/s 734 mmHg 86%
    05:00 -10°C° 0.2 mm 5 m/s 735 mmHg 87%
    06:00 -9°C° 0.2 mm 4 m/s 735 mmHg 88%
    07:00 -10°C° 0.2 mm 4 m/s 735 mmHg 88%
    08:00 -10°C° 0.1 mm 4 m/s 735 mmHg 87%
    09:00 -10°C° 0.1 mm 4 m/s 735 mmHg 85%
    10:00 -11°C° 0.1 mm 4 m/s 736 mmHg 84%
    11:00 -11°C° 0 mm 4 m/s 736 mmHg 83%
    12:00 -10°C° 0 mm 4 m/s 736 mmHg 82%
    13:00 -10°C° 0 mm 4 m/s 736 mmHg 80%
    14:00 -10°C° 0 mm 3 m/s 736 mmHg 83%
    15:00 -10°C° 0 mm 3 m/s 736 mmHg 85%
    16:00 -12°C° 0 mm 3 m/s 736 mmHg 87%
    17:00 -13°C° 0 mm 3 m/s 736 mmHg 89%
    18:00 -13°C° 0 mm 3 m/s 736 mmHg 91%
    19:00 -14°C° 0 mm 3 m/s 735 mmHg 93%
    20:00 -13°C° 0.1 mm 3 m/s 735 mmHg 92%
    21:00 -12°C° 0.1 mm 4 m/s 734 mmHg 90%
    22:00 -12°C° 0.1 mm 4 m/s 733 mmHg 89%
    23:00 -12°C° 0.5 mm 5 m/s 732 mmHg 90%

    23 Novembre, Vendredi

    Heure Température Précipitation Vent Pression Humidité
    00:00 -11°C° 0.5 mm 5 m/s 732 mmHg 90%
    01:00 -10°C° 0.5 mm 6 m/s 731 mmHg 91%
    02:00 -8°C° 0.5 mm 5 m/s 731 mmHg 91%
    03:00 -8°C° 0.5 mm 5 m/s 730 mmHg 91%
    04:00 -8°C° 0.5 mm 5 m/s 730 mmHg 91%
    05:00 -8°C° 0.3 mm 5 m/s 730 mmHg 92%
    06:00 -8°C° 0.3 mm 4 m/s 730 mmHg 93%
    07:00 -8°C° 0.3 mm 4 m/s 730 mmHg 93%
    08:00 -7°C° 0.3 mm 3 m/s 730 mmHg 93%
    09:00 -7°C° 0.3 mm 3 m/s 731 mmHg 93%
    10:00 -7°C° 0.3 mm 3 m/s 731 mmHg 92%
    11:00 -7°C° 0.1 mm 3 m/s 732 mmHg 92%
    12:00 -6°C° 0.1 mm 2 m/s 732 mmHg 91%
    13:00 -6°C° 0.1 mm 2 m/s 732 mmHg 90%
    14:00 -8°C° 0.1 mm 3 m/s 733 mmHg 90%
    15:00 -9°C° 0.1 mm 3 m/s 733 mmHg 90%
    16:00 -10°C° 0.1 mm 4 m/s 734 mmHg 90%
    17:00 -11°C° 0 mm 4 m/s 735 mmHg 88%
    18:00 -13°C° 0 mm 5 m/s 735 mmHg 87%
    19:00 -14°C° 0 mm 5 m/s 736 mmHg 85%
    20:00 -15°C° 0 mm 5 m/s 737 mmHg 85%
    21:00 -15°C° 0 mm 5 m/s 738 mmHg 86%
    22:00 -17°C° 0 mm 5 m/s 738 mmHg 86%
    23:00 -17°C° 0 mm 4 m/s 739 mmHg 88%

    24 Novembre, Samedi

    Heure Température Précipitation Vent Pression Humidité
    00:00 -18°C° 0 mm 4 m/s 740 mmHg 90%
    01:00 -18°C° 0 mm 3 m/s 741 mmHg 93%
    02:00 -18°C° 0 mm 3 m/s 741 mmHg 94%
    03:00 -18°C° 0 mm 2 m/s 742 mmHg 95%
    04:00 -18°C° 0 mm 2 m/s 743 mmHg 97%
    05:00 -19°C° 0 mm 2 m/s 743 mmHg 97%
    06:00 -19°C° 0 mm 2 m/s 743 mmHg 97%
    07:00 -19°C° 0 mm 2 m/s 744 mmHg 98%
    08:00 -17°C° 0.1 mm 2 m/s 744 mmHg 96%
    09:00 -17°C° 0.1 mm 3 m/s 744 mmHg 95%
    10:00 -16°C° 0.1 mm 3 m/s 744 mmHg 94%
    11:00 -16°C° 0.1 mm 4 m/s 744 mmHg 93%
    12:00 -15°C° 0.1 mm 4 m/s 744 mmHg 92%
    13:00 -13°C° 0.1 mm 5 m/s 743 mmHg 90%
    14:00 -13°C° 0.3 mm 5 m/s 743 mmHg 90%
    15:00 -12°C° 0.3 mm 6 m/s 743 mmHg 91%
    16:00 -11°C° 0.3 mm 6 m/s 743 mmHg 91%
    17:00 -12°C° 0.3 mm 7 m/s 743 mmHg 90%
    18:00 -11°C° 0.3 mm 7 m/s 742 mmHg 90%
    19:00 -11°C° 0.3 mm 7 m/s 742 mmHg 89%
    20:00 -11°C° 0.2 mm 7 m/s 742 mmHg 88%
    21:00 -11°C° 0.2 mm 7 m/s 742 mmHg 88%
    22:00 -11°C° 0.2 mm 7 m/s 742 mmHg 87%
    23:00 -11°C° 0.2 mm 7 m/s 742 mmHg 87%

    25 Novembre, Dimanche

    Heure Température Précipitation Vent Pression Humidité
    00:00 -11°C° 0.2 mm 7 m/s 742 mmHg 88%
    01:00 -9°C° 0.2 mm 7 m/s 742 mmHg 88%
    02:00 -9°C° 0.2 mm 7 m/s 741 mmHg 88%
    03:00 -9°C° 0.2 mm 7 m/s 741 mmHg 88%
    04:00 -10°C° 0.2 mm 8 m/s 741 mmHg 87%
    05:00 -10°C° 0.2 mm 8 m/s 741 mmHg 87%
    06:00 -8°C° 0.2 mm 8 m/s 740 mmHg 87%
    07:00 -8°C° 0.2 mm 8 m/s 740 mmHg 87%
    08:00 -8°C° 0.3 mm 7 m/s 740 mmHg 88%
    09:00 -8°C° 0.3 mm 7 m/s 741 mmHg 88%
    10:00 -8°C° 0.3 mm 7 m/s 741 mmHg 88%
    11:00 -7°C° 0.2 mm 7 m/s 741 mmHg 88%
    12:00 -7°C° 0.2 mm 7 m/s 741 mmHg 88%
    13:00 -6°C° 0.2 mm 6 m/s 742 mmHg 88%
    14:00 -6°C° 0.1 mm 6 m/s 742 mmHg 88%
    15:00 -6°C° 0.1 mm 6 m/s 743 mmHg 88%
    16:00 -6°C° 0.1 mm 5 m/s 743 mmHg 88%
    17:00 -7°C° 0.1 mm 5 m/s 744 mmHg 89%
    18:00 -7°C° 0.1 mm 5 m/s 744 mmHg 90%
    19:00 -7°C° 0.1 mm 4 m/s 745 mmHg 91%
    20:00 -7°C° 0.1 mm 4 m/s 745 mmHg 92%
    21:00 -8°C° 0.1 mm 4 m/s 746 mmHg 92%
    22:00 -8°C° 0.1 mm 4 m/s 746 mmHg 93%
    23:00 -7°C° 0 mm 3 m/s 746 mmHg 93%
    Voir plus